Regional Weather Roundup
Issued by NWS

Home | Current Version | Previous Version | Text Only | Print | Product List | Glossary On
Versions: 1 2 3 4 5 6 7 8 9 10 11 12 13 14 15 16 17 18 19 20 21 22 23 24 25 26 27 28 29 30 31 32 33 34 35 36 37 38 39 40 41 42 43 44 45 46 47 48 49 50
000
ASUS43 KTOP 210059
RWRKS

WEATHER ROUNDUP FOR KANSAS
NATIONAL WEATHER SERVICE GOODLAND KS
800 PM CDT SUN AUG 20 2017

NOTE:  "FAIR" INDICATES FEW OR NO CLOUDS BELOW 12,000 FEET WITH NO
SIGNIFICANT WEATHER AND/OR OBSTRUCTIONS TO VISIBILITY.

KSZ001>006-013>018-027>032-041>047-210200-
NORTHWEST KANSAS

CITY           SKY/WX    TMP DP  RH WIND       PRES   REMARKS
GOODLAND       PTCLDY    83  61  47 S8        29.96R
HAYS           CLOUDY    90  65  43 S12       29.89R
HILL CITY      PTCLDY    91  62  37 SW7       29.88R
RUSSELL        PTCLDY    90  66  45 S15       29.88R
$$

KSZ061>065-074>080-084>089-210200-
SOUTHWEST KANSAS

CITY           SKY/WX    TMP DP  RH WIND       PRES   REMARKS
DODGE CITY     PTCLDY    89  58  34 S14       29.95R
ELKHART          N/A     82  66  58 SE7         N/A
GARDEN CITY    CLEAR     85  63  47 S8        29.94S
GREAT BEND     MOCLDY    87  68  52 SE12      29.91R
LIBERAL        PTCLDY    85  66  53 S14       29.95S
$$

KSZ066>073-081>083-090>101-210200-
SOUTHEAST KANSAS

CITY           SKY/WX    TMP DP  RH WIND       PRES   REMARKS
CHANUTE        CLEAR     86  75  69 S6        29.97R HX  95
COFFEYVILLE    PTCLDY    83  67  58 S7        29.95S
HUTCHINSON     PTCLDY    89  67  47 S9        29.92R
MEDICINE LODGE   N/A     88  69  53 S8        29.91R
NEWTON         PTCLDY    85  70  60 S9        29.95R
PARSONS        CLEAR     84  68  58 S5        29.97S
WICHITA INTL   PTCLDY    89  68  49 S10       29.93R
WICHITA JABRA  CLEAR     87  71  58 S9        29.94R
WINFIELD       CLEAR     85  71  63 S10       29.95R
$$

KSZ007>012-019>026-033>040-048>060-102>105-210200-
NORTHEAST KANSAS

CITY           SKY/WX    TMP DP  RH WIND       PRES   REMARKS
CONCORDIA      PTCLDY    87  70  56 S10       29.88R
EMPORIA        MOCLDY    85  74  69 S10       29.94S
LAWRENCE       PTCLDY    83  77  82 E6        29.94S
MANHATTAN      CLOUDY    88  74  63 S10       29.89S HX  96
OLATHE IND     PTCLDY    83  76  79 E6        29.98R
OLATHE EXE     CLOUDY    83  77  82 SE8       29.98R
SALINA         MOCLDY    94  67  41 S14       29.90R HX  97
TOPEKA BILLARD PTCLDY    84  77  79 E8        29.93S
TOPEKA FORBES  MOCLDY    85  77  77 E10       29.94S HX  95
$$




USA.gov is the U.S. government's official web portal to all federal, state and local government web resources and services.